Weather History for Middleton, WI

Change the Weather History Date:

Saturday, October 6, 2012

  Actual Average (KMSN) Record (KMSN)
Temperature  
Mean Temperature 40 °F 52 °F  
Max Temperature 47 °F 63 °F 90 °F (1963)
Min Temperature 33 °F 42 °F 22 °F (1952)
Degree Days  
Heating Degree Days 25 13  
Month to date heating degree days 72  
Since 1 July heating degree days 280  
Cooling Degree Days 0 0  
Month to date cooling degree days 0  
Year to date cooling degree days 564  
Moisture  
Dew Point 24 °F    
Average Humidity 51    
Maximum Humidity 71    
Minimum Humidity 39    
Precipitation  
Precipitation 0.00 in 0.08 in 1.19 in (1949)
Month to date precipitation 0.48  
Year to date precipitation 28.43  
Snow  
Snow 0.00 in 0.00 in 0.50 in (1964)
Month to date snowfall 0.0  
Since 1 July snowfall 0.0  
Since 1 September snowfall 0.0  
Snow Depth -    
Sea Level Pressure  
Sea Level Pressure 30.13 in    
Wind  
Wind Speed 8 mph (WNW)    
Max Wind Speed 16 mph    
Max Gust Speed 22 mph    
Visibility 10 miles    
Events      
T = Trace of Precipitation, MM = Missing Value Source: NWS Daily Summary

Daily Weather History Graph

Daily Weather History Graph

Search for Another Location

Airport:

Trip Planner

Search our weather history database for the weather conditions in past years. The results will help you decide how hot, cold, wet, or windy it might be!

Date:

Astronomy

Oct. 06, 2012 Rise Set
Actual Time 7:01 AM CDT 6:29 PM CDT
Civil Twilight 6:33 AM CDT 6:58 PM CDT
Nautical Twilight 6:00 AM CDT 7:30 PM CDT
Astronomical Twilight 5:27 AM CDT 8:03 PM CDT
Moon 10:38 PM CDT (10/6) 1:03 PM CDT (10/6)
Length of Visible Light 12h 24m
Length of Day
11h 27m
Waning Gibbous, 65% of the Moon is Illuminated
Oct 6
Waning Gibbous
Oct 8
Last Quarter
Oct 15
New
Oct 21
First Quarter
Oct 29
Full

Hourly Weather History & Observations

Time (CDT) Temp. Windchill Dew Point Humidity Pressure Visibility Wind Dir Wind Speed Gust Speed Precip Events Conditions
12:15 AM 37.6 °F 33.1 °F 25.7 °F 62% 30.06 in 10.0 mi West 5.8 mph - N/A   Overcast
12:35 AM 37.9 °F 33.5 °F 26.1 °F 62% 30.05 in 10.0 mi West 5.8 mph - N/A   Overcast
12:55 AM 40.1 °F 35.3 °F 25.9 °F 57% 30.05 in 10.0 mi West 6.9 mph - N/A   Overcast
1:15 AM 41.0 °F 36.4 °F 25.2 °F 53% 30.05 in 10.0 mi West 6.9 mph - N/A   Overcast
1:35 AM 41.4 °F 36.8 °F 24.8 °F 52% 30.05 in 10.0 mi WNW 6.9 mph - N/A   Overcast
1:55 AM 41.4 °F 36.8 °F 24.8 °F 52% 30.05 in 10.0 mi WNW 6.9 mph - N/A   Overcast
2:15 AM 42.3 °F 36.8 °F 23.9 °F 48% 30.06 in 10.0 mi WNW 9.2 mph - N/A   Overcast
2:35 AM 42.3 °F 35.9 °F 22.6 °F 46% 30.05 in 10.0 mi NW 11.5 mph - N/A   Overcast
2:55 AM 42.1 °F 35.2 °F 22.3 °F 45% 30.05 in 10.0 mi WNW 12.7 mph 18.4 mph N/A   Overcast
3:15 AM 41.9 °F 35.9 °F 22.8 °F 47% 30.05 in 10.0 mi WNW 10.4 mph - N/A   Overcast
3:35 AM 40.6 °F 34.8 °F 23.7 °F 51% 30.05 in 10.0 mi WNW 9.2 mph - N/A   Mostly Cloudy
3:55 AM 39.4 °F 33.2 °F 23.9 °F 54% 30.05 in 10.0 mi WNW 9.2 mph - N/A   Scattered Clouds
4:15 AM 37.2 °F 33.6 °F 23.9 °F 59% 30.06 in 10.0 mi West 4.6 mph - N/A   Clear
4:35 AM 35.8 °F 30.9 °F 24.4 °F 63% 30.06 in 10.0 mi West 5.8 mph - N/A   Mostly Cloudy
4:55 AM 34.5 °F 29.4 °F 24.4 °F 67% 30.07 in 10.0 mi West 5.8 mph - N/A   Scattered Clouds
5:15 AM 33.8 °F 28.6 °F 24.4 °F 69% 30.07 in 10.0 mi West 5.8 mph - N/A   Clear
5:35 AM 33.4 °F 28.1 °F 24.8 °F 71% 30.08 in 10.0 mi West 5.8 mph - N/A   Mostly Cloudy
5:55 AM 35.6 °F 31.7 °F 25.3 °F 66% 30.08 in 10.0 mi West 4.6 mph - N/A   Overcast
6:15 AM 35.2 °F 29.5 °F 25.5 °F 68% 30.09 in 10.0 mi WNW 6.9 mph - N/A   Overcast
6:35 AM 38.5 °F 32.1 °F 25.3 °F 59% 30.09 in 10.0 mi WNW 9.2 mph - N/A   Overcast
6:55 AM 38.7 °F 30.1 °F 24.6 °F 57% 30.10 in 10.0 mi NW 15.0 mph 21.9 mph N/A   Overcast
7:15 AM 39.2 °F 31.2 °F 24.8 °F 56% 30.10 in 10.0 mi WNW 13.8 mph 18.4 mph N/A   Overcast
7:35 AM 39.4 °F 30.7 °F 24.8 °F 56% 30.10 in 10.0 mi WNW 16.1 mph 19.6 mph N/A   Overcast
7:55 AM 39.6 °F 33.5 °F 25.0 °F 56% 30.11 in 10.0 mi WNW 9.2 mph - N/A   Overcast
8:15 AM 40.1 °F 33.6 °F 25.3 °F 56% 30.11 in 10.0 mi WNW 10.4 mph - N/A   Overcast
8:35 AM 40.5 °F 32.8 °F 25.3 °F 55% 30.12 in 10.0 mi WNW 13.8 mph 17.3 mph N/A   Overcast
8:55 AM 41.0 °F 34.3 °F 25.5 °F 54% 30.13 in 10.0 mi WNW 11.5 mph - N/A   Overcast
9:15 AM 41.7 °F 35.6 °F 25.7 °F 53% 30.13 in 10.0 mi WNW 10.4 mph - N/A   Overcast
9:35 AM 42.3 °F 36.8 °F 25.0 °F 50% 30.13 in 10.0 mi NW 9.2 mph - N/A   Overcast
9:55 AM 42.4 °F 35.7 °F 24.8 °F 50% 30.14 in 10.0 mi NW 12.7 mph 17.3 mph N/A   Overcast
10:15 AM 42.4 °F 35.3 °F 24.8 °F 50% 30.14 in 10.0 mi WNW 13.8 mph - N/A   Overcast
10:35 AM 42.4 °F 35.3 °F 25.2 °F 50% 30.15 in 10.0 mi NW 13.8 mph 18.4 mph N/A   Overcast
10:55 AM 42.3 °F 35.5 °F 25.0 °F 50% 30.15 in 10.0 mi NNW 12.7 mph 18.4 mph N/A   Overcast
11:15 AM 43.7 °F 36.9 °F 25.0 °F 48% 30.16 in 10.0 mi NW 13.8 mph 17.3 mph N/A   Overcast
11:35 AM 43.5 °F 38.3 °F 24.3 °F 47% 30.17 in 10.0 mi NW 9.2 mph - N/A   Overcast
11:55 AM 44.1 °F 38.1 °F 24.3 °F 46% 30.17 in 10.0 mi NW 11.5 mph - N/A   Overcast
12:15 PM 45.5 °F 39.6 °F 25.0 °F 45% 30.17 in 10.0 mi NW 12.7 mph - N/A   Overcast
12:35 PM 45.0 °F 38.5 °F 24.4 °F 45% 30.16 in 10.0 mi NNW 13.8 mph - N/A   Overcast
12:55 PM 46.0 °F 40.6 °F 23.9 °F 42% 30.16 in 10.0 mi NW 11.5 mph 19.6 mph N/A   Overcast
1:15 PM 46.2 °F 39.8 °F 24.3 °F 42% 30.15 in 10.0 mi NW 15.0 mph - N/A   Overcast
1:35 PM 47.7 °F - 23.5 °F 39% 30.14 in 10.0 mi WNW 10.4 mph 17.3 mph N/A   Overcast
1:55 PM 45.5 °F 39.9 °F 23.5 °F 42% 30.14 in 10.0 mi NW 11.5 mph 20.7 mph N/A   Overcast
2:15 PM 45.7 °F 40.6 °F 22.8 °F 41% 30.15 in 10.0 mi NNW 10.4 mph 17.3 mph N/A   Overcast
2:35 PM 45.7 °F 40.2 °F 22.5 °F 40% 30.15 in 10.0 mi NW 11.5 mph - N/A   Overcast
2:55 PM 45.1 °F 39.9 °F 23.9 °F 43% 30.16 in 10.0 mi NW 10.4 mph 18.4 mph N/A   Overcast
3:15 PM 44.6 °F 38.8 °F 23.7 °F 44% 30.16 in 10.0 mi NW 11.5 mph 16.1 mph N/A   Overcast
3:35 PM 45.0 °F 40.6 °F 23.0 °F 42% 30.15 in 10.0 mi NW 8.1 mph - N/A   Overcast
3:55 PM 44.6 °F 40.2 °F 23.4 °F 43% 30.15 in 10.0 mi North 8.1 mph - N/A   Overcast
4:15 PM 44.6 °F 39.7 °F 23.0 °F 43% 30.15 in 10.0 mi NW 9.2 mph - N/A   Overcast
4:35 PM 44.6 °F 39.7 °F 23.4 °F 43% 30.16 in 10.0 mi NW 9.2 mph - N/A   Overcast
4:55 PM 44.2 °F 38.8 °F 23.4 °F 44% 30.16 in 10.0 mi NNW 10.4 mph - N/A   Overcast
5:15 PM 43.9 °F 40.5 °F 23.2 °F 44% 30.17 in 10.0 mi NW 5.8 mph - N/A   Overcast
5:35 PM 43.9 °F 40.5 °F 22.8 °F 43% 30.17 in 10.0 mi NW 5.8 mph - N/A   Overcast
6:15 PM 43.0 °F 39.5 °F 23.5 °F 46% 30.18 in 10.0 mi West 5.8 mph - N/A   Overcast
6:35 PM 42.8 °F 40.1 °F 23.9 °F 47% 30.18 in 10.0 mi West 4.6 mph - N/A   Overcast
6:55 PM 42.4 °F 38.1 °F 23.9 °F 48% 30.18 in 10.0 mi West 6.9 mph - N/A   Overcast
7:15 PM 42.4 °F 38.8 °F 23.9 °F 48% 30.19 in 10.0 mi West 5.8 mph - N/A   Overcast
7:35 PM 42.3 °F 39.4 °F 24.4 °F 49% 30.19 in 10.0 mi West 4.6 mph - N/A   Overcast
7:55 PM 42.1 °F 38.4 °F 24.4 °F 50% 30.19 in 10.0 mi West 5.8 mph - N/A   Overcast
8:15 PM 41.5 °F 37.8 °F 25.2 °F 52% 30.19 in 10.0 mi West 5.8 mph - N/A   Overcast
8:35 PM 41.5 °F 38.6 °F 24.8 °F 51% 30.19 in 10.0 mi WNW 4.6 mph - N/A   Overcast
8:55 PM 41.4 °F 37.6 °F 25.0 °F 52% 30.19 in 10.0 mi WNW 5.8 mph - N/A   Overcast
9:15 PM 41.9 °F 37.5 °F 24.4 °F 50% 30.18 in 10.0 mi WNW 6.9 mph - N/A   Overcast
9:35 PM 41.9 °F 37.5 °F 24.6 °F 50% 30.18 in 10.0 mi WNW 6.9 mph - N/A   Overcast
9:55 PM 41.9 °F 38.2 °F 24.3 °F 50% 30.19 in 10.0 mi WNW 5.8 mph - N/A   Overcast
10:15 PM 41.5 °F 37.8 °F 24.3 °F 50% 30.19 in 10.0 mi WNW 5.8 mph - N/A   Overcast
10:35 PM 41.4 °F 38.4 °F 24.8 °F 52% 30.19 in 10.0 mi WNW 4.6 mph - N/A   Overcast
10:55 PM 41.0 °F 37.1 °F 25.2 °F 53% 30.19 in 10.0 mi WNW 5.8 mph - N/A   Overcast
11:15 PM 40.5 °F 36.5 °F 25.5 °F 55% 30.19 in 10.0 mi WNW 5.8 mph - N/A   Overcast
11:35 PM 40.5 °F 37.3 °F 25.3 °F 55% 30.19 in 10.0 mi West 4.6 mph - N/A   Overcast
11:55 PM 40.1 °F 36.9 °F 25.7 °F 56% 30.19 in 10.0 mi West 4.6 mph - N/A   Overcast